Theta_e
340 343 345 345 345 345 345 346 346 345 344 343 342 341 340 341 343 345 345 346 346 347 347 347 347 349 349 348 348 348 345 340 341 344 346 347 346 346 345 344 343 344 344
343 346 346 346 344 345 346 346 347 345 345 345 344 340 339 342 345 345 345 345 346 347 347 347 349 351 351 347 347 345 342 345 342 343 343 345 344 345 346 343 343 343 343
345 346 347 348 350 346 347 348 349 347 344 344 345 346 346 346 346 347 347 345 346 347 348 348 349 350 349 345 349 347 345 347 340 341 340 342 343 346 345 344 343 343 342
346 346 348 348 350 350 352 353 350 347 345 344 345 345 346 346 347 348 347 344 343 345 348 349 350 347 344 343 345 349 340 343 344 348 348 345 345 346 344 344 343 342 342
344 347 348 348 350 352 353 352 351 346 345 344 345 345 345 346 347 346 341 336 336 344 348 349 347 346 345 344 340 343 341 345 344 344 345 344 344 344 344 343 342 342 342
344 347 348 348 350 352 354 352 350 349 348 347 346 345 344 345 346 344 341 340 338 341 340 341 345 345 347 345 340 340 341 345 345 343 343 343 344 344 344 343 342 342 341
346 345 347 346 349 350 353 353 350 347 346 344 343 342 341 341 342 341 338 334 333 338 338 335 340 346 347 347 343 339 340 345 349 343 342 343 343 343 342 342 342 341 341
347 348 346 346 349 351 352 352 349 346 343 344 343 342 346 345 338 339 339 337 335 336 336 334 337 344 348 348 346 340 340 341 350 343 342 342 342 342 341 341 340 341 341
346 347 347 345 347 349 350 349 348 346 345 342 345 343 345 346 337 335 335 339 339 335 336 335 339 344 348 348 348 344 338 341 349 342 341 341 341 341 340 340 340 338 335
347 347 347 347 347 350 350 349 345 345 340 338 338 338 336 336 340 339 334 336 335 335 336 339 344 348 348 348 349 346 340 341 342 342 342 341 341 340 340 340 339 336 330
346 346 349 349 347 348 350 350 343 342 341 337 338 338 340 337 337 336 342 336 337 337 342 345 347 348 348 347 348 348 345 338 343 343 342 341 341 341 340 339 339 335 332
346 346 348 348 346 347 349 349 349 349 349 345 346 339 342 344 343 339 341 338 339 338 340 345 347 349 349 347 348 349 348 343 338 343 342 343 345 348 347 344 340 336 335
345 347 348 347 348 346 348 349 351 351 349 350 348 350 349 347 343 341 341 341 342 344 344 345 345 347 348 351 350 350 350 350 338 338 340 341 344 347 345 344 343 343 342
345 345 347 348 349 348 346 351 351 350 351 350 350 350 350 347 344 343 343 344 350 343 344 346 346 349 349 350 348 348 350 350 346 338 337 338 340 342 343 345 344 343 342
347 346 346 346 345 349 347 350 350 350 352 351 351 350 349 348 347 346 346 345 346 350 350 348 348 349 350 347 347 347 347 348 347 340 340 339 339 340 341 341 344 344 343
346 347 348 347 346 345 348 350 349 349 350 351 350 348 349 349 350 350 350 350 349 347 348 348 349 347 350 350 349 347 349 349 348 347 345 342 341 340 340 341 343 342 344
348 347 347 349 349 347 348 349 350 351 349 349 350 349 348 349 349 350 348 350 349 349 346 349 349 347 348 347 347 345 345 348 349 350 350 348 347 345 343 341 341 342 342
348 347 347 348 348 349 349 349 349 349 347 348 348 348 349 349 348 350 349 348 348 350 348 347 348 349 346 344 344 345 343 344 348 350 351 351 351 351 351 351 349 343 342
348 349 348 347 348 348 349 348 349 347 348 347 348 349 349 348 348 349 349 348 348 349 347 344 345 347 347 346 345 346 344 350 350 351 352 349 347 348 349 350 349 347 347
348 350 349 348 348 348 349 349 350 350 349 349 348 349 349 349 350 348 348 348 347 345 345 344 345 347 348 349 348 347 345 349 346 347 342 340 346 347 348 347 348 348 345
349 349 348 348 348 348 348 349 350 348 348 348 349 349 348 348 349 348 348 348 349 346 347 348 347 347 348 348 350 349 346 347 343 344 335 342 344 342 337 334 333 339 346
349 350 350 350 349 347 349 349 349 349 349 348 349 347 347 346 347 346 348 347 347 347 348 347 346 346 347 349 339 341 346 346 348 333 337 336 340 333 325 325 327 330 333
348 349 350 349 349 348 348 348 349 349 349 349 348 347 347 347 346 346 347 347 347 347 347 347 346 345 345 346 335 340 346 345 332 327 330 331 337 336 323 326 326 326 328
344 344 343 343 346 347 346 345 346 347 347 347 347 347 345 345 345 345 346 344 341 341 340 337 335 337 337 335 337 341 345 344 341 326 327 332 328 336 324 324 324 325 324
341 341 341 342 342 342 343 343 343 343 345 345 346 345 343 342 343 346 343 340 336 334 334 333 331 334 338 342 342 336 334 337 341 331 325 329 328 332 334 322 322 323 322
340 339 341 340 341 341 341 342 342 342 342 341 341 340 338 340 337 340 339 334 330 326 325 324 324 325 325 325 326 327 326 329 329 323 321 321 321 322 335 334 321 318 318
Wind_Speed
6 7 8 7 7 7 8 9 10 8 10 9 6 2 3 5 4 4 4 4 8 7 7 7 9 11 12 14 15 15 17 17 13 9 4 4 8 11 14 17 21 23 23
5 7 7 6 4 4 5 6 7 8 8 7 7 5 2 3 4 4 5 6 6 8 4 4 7 10 13 15 15 18 19 14 13 10 8 3 1 5 8 10 13 18 19
6 8 6 6 6 4 4 4 2 5 6 7 7 5 3 3 4 5 4 5 6 8 5 3 5 9 13 15 17 19 18 14 15 10 8 4 2 3 5 7 9 12 16
5 6 8 7 9 8 7 8 6 7 5 6 4 3 3 3 4 3 4 4 7 9 8 5 8 12 15 18 19 19 19 15 15 13 11 9 5 2 3 5 7 10 16
4 6 7 6 8 8 7 8 6 7 6 4 1 1 3 2 1 5 7 6 10 12 14 15 15 14 18 20 21 20 19 15 14 12 11 11 8 4 3 6 8 12 16
5 3 5 7 7 9 10 9 9 8 6 5 4 3 1 2 3 3 3 4 4 6 11 16 16 18 19 21 23 21 20 15 13 12 12 13 12 10 9 10 13 15 16
6 4 4 5 5 9 10 6 7 9 10 9 4 3 2 2 2 4 5 4 3 2 4 9 16 18 20 21 23 20 19 16 12 13 13 13 13 13 14 14 14 14 15
5 4 3 3 6 7 9 7 5 9 9 4 2 2 3 3 1 1 2 3 6 3 5 10 11 17 19 19 20 20 17 16 11 13 12 13 13 12 13 14 13 13 12
6 4 4 4 4 5 7 7 3 5 5 2 4 1 2 2 5 3 3 3 8 7 9 11 14 16 17 18 16 18 16 14 11 12 12 11 11 11 11 12 11 10 9
6 4 2 2 3 4 3 5 3 4 3 3 2 4 1 1 1 4 4 9 9 8 11 12 15 15 15 15 14 14 15 13 13 11 10 8 8 9 9 8 7 7 7
6 5 4 1 1 1 2 3 3 3 2 2 3 1 0 2 2 1 2 8 6 11 12 15 15 14 13 13 13 12 13 12 12 12 8 6 6 6 7 6 5 5 5
10 9 6 5 3 3 3 3 1 1 3 5 4 2 3 2 1 1 3 3 4 8 8 11 13 13 11 11 13 12 10 11 10 11 10 6 4 5 5 4 4 4 5
13 11 11 9 6 4 4 5 4 4 2 4 4 5 4 2 2 3 2 1 3 5 6 6 9 10 10 10 11 12 11 9 8 9 8 7 5 3 2 1 2 3 5
15 12 12 10 9 7 6 6 5 3 3 4 3 3 4 3 1 2 1 2 1 6 4 8 6 11 8 8 10 11 12 7 4 6 7 6 5 4 3 1 2 4 5
14 13 13 14 12 10 8 9 8 6 5 2 1 2 3 2 2 2 3 3 1 1 2 6 7 9 6 6 8 8 10 7 4 4 4 4 4 3 1 1 3 3 6
14 13 15 17 15 15 13 11 10 8 7 7 6 5 5 4 4 4 4 5 3 1 0 2 6 7 12 13 13 10 13 12 9 7 4 4 5 5 4 4 4 4 7
15 14 15 16 20 18 15 14 13 11 11 9 9 8 7 7 5 4 3 2 1 3 3 1 4 8 8 11 11 12 10 9 8 9 8 6 3 4 6 8 8 8 9
16 18 17 13 15 21 19 16 16 16 13 13 9 8 7 7 7 6 4 4 4 3 5 5 1 3 6 4 5 5 10 6 7 8 7 8 6 4 4 5 8 12 12
15 16 17 17 15 17 18 18 19 17 14 11 11 9 10 10 9 10 6 5 4 3 2 3 3 1 1 4 6 8 8 9 10 9 9 12 10 9 7 7 7 7 13
15 17 17 16 16 17 17 18 17 17 16 14 13 13 13 13 13 10 9 7 5 4 3 4 3 2 1 2 4 8 8 5 12 11 12 12 12 12 13 13 11 8 3
12 13 17 14 17 17 19 19 18 17 17 16 14 13 13 8 8 8 11 9 7 6 5 5 3 1 1 1 3 4 4 4 9 10 14 15 16 18 19 20 20 19 16
13 12 12 15 17 19 20 21 20 19 19 18 18 17 17 14 10 10 11 11 7 7 7 5 3 2 1 1 1 2 3 4 2 12 8 14 15 19 20 21 19 19 18
7 7 8 11 13 14 20 23 22 21 20 20 19 19 15 11 10 9 12 10 7 4 2 2 3 3 4 4 3 2 3 6 8 13 5 10 11 14 20 19 18 19 18
2 3 5 8 9 12 13 12 15 18 17 18 11 12 9 9 9 9 9 8 5 2 2 3 3 4 7 6 3 2 3 7 7 13 9 4 11 8 16 18 17 16 17
3 4 5 8 11 13 12 8 9 8 8 8 12 11 11 10 10 9 9 9 10 13 14 11 13 12 9 8 6 6 5 7 3 5 14 4 9 6 7 14 14 14 15
3 4 6 9 12 19 17 8 6 4 6 7 9 13 12 9 8 8 9 13 17 16 18 18 19 18 17 16 13 11 7 8 6 3 15 4 7 7 1 2 10 14 14
Wind_Direction
42 45 49 40 43 48 47 52 50 66 59 57 59 89 70 56 37 29 34 20 8 343 341 340 350 8 9 4 4 351 347 343 348 341 262 222 230 237 232 233 228 222 220
60 54 65 54 33 45 49 47 53 66 74 73 74 76 44 6 347 313 315 333 355 350 323 329 354 13 17 17 12 5 8 8 18 16 37 136 222 224 217 223 225 219 214
60 57 47 61 63 50 41 9 16 109 110 91 77 71 56 27 333 326 290 328 1 10 23 326 349 30 29 23 24 22 19 16 35 41 56 106 213 178 185 200 211 209 202
83 66 40 69 56 62 69 56 88 126 127 97 90 72 56 10 15 14 101 104 51 39 50 43 69 46 39 29 28 30 24 27 39 41 44 58 82 148 162 170 187 188 184
89 61 59 79 62 55 60 54 83 136 142 145 148 271 277 248 154 124 123 99 60 53 71 73 60 46 44 32 30 29 28 27 32 34 45 52 52 65 144 143 158 161 160
118 71 72 78 67 65 64 80 87 111 122 127 128 124 20 272 228 201 201 247 329 39 70 62 54 50 44 34 31 27 27 29 30 45 52 56 65 78 96 117 131 141 147
121 82 85 69 75 66 60 86 97 118 117 119 111 68 345 20 336 278 284 310 306 179 64 30 48 46 38 34 29 26 25 32 32 59 60 67 74 85 97 107 121 132 141
138 97 89 82 80 81 68 90 111 135 142 133 26 42 351 333 258 268 20 57 61 26 16 22 46 43 36 31 26 26 25 33 40 62 65 74 84 92 101 110 117 126 137
170 149 95 78 88 72 64 60 131 152 155 231 246 31 21 290 326 282 350 329 337 10 27 33 49 38 37 26 25 25 28 29 49 63 67 75 87 97 104 112 120 128 134
194 204 149 80 77 76 56 59 34 178 138 128 93 73 65 261 330 339 30 5 14 37 27 38 48 40 27 22 23 21 31 31 45 57 69 77 89 102 110 115 123 130 137
212 219 210 194 356 304 28 39 53 88 49 79 334 306 71 42 57 275 3 335 22 34 56 46 39 26 21 22 24 19 29 33 46 52 67 78 89 103 114 121 131 144 149
223 217 221 223 241 266 294 314 317 35 24 33 11 3 317 290 256 106 76 280 322 22 27 35 27 33 27 27 22 21 22 29 48 60 55 80 99 115 126 132 141 156 164
230 231 224 227 227 248 246 265 282 315 303 342 344 11 342 296 192 121 116 29 350 11 13 20 27 34 24 27 21 19 32 26 40 65 61 56 65 119 122 159 190 199 190
239 236 232 236 239 248 244 242 247 281 282 296 323 349 14 41 94 298 357 54 13 16 5 5 19 7 10 55 59 29 14 19 61 64 62 47 48 58 95 195 255 263 248
242 246 241 242 241 241 250 242 242 248 243 242 274 342 14 3 300 325 339 334 52 48 330 1 2 357 56 51 49 25 33 37 70 63 40 31 17 22 38 81 203 250 267
248 251 247 244 239 238 241 239 243 241 244 239 250 272 287 301 306 325 328 329 278 25 305 329 39 44 68 72 75 64 51 45 54 49 12 335 325 325 322 304 273 253 238
247 249 258 251 238 232 235 238 235 242 246 247 243 259 259 254 247 253 260 281 322 219 210 144 67 86 71 78 78 66 52 44 39 35 32 37 9 326 309 288 273 262 257
244 248 252 258 233 237 231 234 238 242 249 243 239 240 251 242 236 233 237 236 243 228 214 203 237 79 58 35 45 21 18 20 17 26 24 15 14 5 16 324 288 256 250
247 246 244 251 248 231 232 239 236 242 249 257 254 265 259 253 250 232 232 212 205 204 205 226 210 261 19 32 43 52 40 81 43 41 53 55 44 41 33 11 344 316 238
249 246 245 249 238 242 245 242 249 240 240 249 262 262 273 261 237 238 227 220 201 219 220 221 225 205 159 29 42 26 36 75 50 72 60 48 51 52 44 32 26 11 22
252 261 261 251 242 244 245 245 240 243 250 250 251 256 265 273 231 241 243 229 231 221 210 213 218 207 168 104 49 15 11 63 65 61 58 65 66 68 61 51 47 46 47
252 261 267 267 262 254 245 241 241 243 245 242 243 249 256 250 241 234 233 246 232 218 219 211 207 226 210 214 7 351 24 44 42 24 65 63 71 68 63 60 58 54 55
229 254 281 281 276 270 260 249 238 237 245 245 248 253 237 244 236 237 226 222 225 214 211 258 287 277 259 225 284 160 110 103 82 33 80 63 79 75 67 67 56 58 64
230 259 301 308 301 292 283 284 275 251 245 246 238 247 261 268 256 224 193 173 174 193 243 252 255 262 256 244 228 168 132 136 129 42 45 69 34 77 72 72 59 60 61
273 285 287 287 300 297 295 302 289 261 224 220 209 210 240 248 241 207 185 165 132 103 106 112 101 95 97 119 136 129 104 147 111 37 23 66 11 21 111 70 60 48 42
291 264 248 266 284 275 267 248 285 279 185 158 172 191 200 227 225 206 189 161 137 128 125 116 106 99 92 91 92 95 97 106 110 69 15 52 30 19 129 50 27 25 19